Time,TemperatureF,DewpointF,PressureIn,WindDirection,WindDirectionDegrees,WindSpeedMPH,WindSpeedGustMPH,Humidity,HourlyPrecipIn,Conditions,Clouds,dailyrainin,SolarRadiationWatts/m^2,SoftwareType,DateUTC
2013-08-22 00:22:00,55.0,42.0,-100.00,NNE,17,2.0,6.0,61,0.00,,,0.00,0.000000,,2013-08-22 06:22:00,
2013-08-22 00:32:00,55.0,42.0,-100.00,NNE,17,2.0,6.0,61,0.00,,,0.00,0.000000,,2013-08-22 06:32:00,
2013-08-22 00:42:00,55.0,42.0,-100.00,NNE,17,2.0,6.0,61,0.00,,,0.00,0.000000,,2013-08-22 06:42:00,
2013-08-22 00:52:00,55.0,42.0,-100.00,NNE,17,2.0,6.0,61,0.00,,,0.00,0.000000,,2013-08-22 06:52:00,
2013-08-22 01:22:00,53.0,41.0,-100.00,WNW,303,2.0,5.0,63,0.00,,,0.00,0.000000,,2013-08-22 07:22:00,
2013-08-22 01:32:00,53.0,41.0,-100.00,WNW,303,2.0,5.0,63,0.00,,,0.00,0.000000,,2013-08-22 07:32:00,
2013-08-22 01:42:00,53.0,41.0,-100.00,WNW,303,2.0,5.0,63,0.00,,,0.00,0.000000,,2013-08-22 07:42:00,
2013-08-22 01:52:00,53.0,41.0,-100.00,WNW,303,2.0,5.0,63,0.00,,,0.00,0.000000,,2013-08-22 07:52:00,
2013-08-22 02:22:00,54.0,42.0,-100.00,NW,315,2.0,4.0,63,0.00,,,0.00,0.000000,,2013-08-22 08:22:00,
2013-08-22 02:33:00,54.0,42.0,-100.00,NW,315,2.0,4.0,63,0.00,,,0.00,0.000000,,2013-08-22 08:33:00,
2013-08-22 02:43:00,54.0,42.0,-100.00,NW,315,2.0,4.0,63,0.00,,,0.00,0.000000,,2013-08-22 08:43:00,
2013-08-22 02:53:00,54.0,42.0,-100.00,NW,315,2.0,4.0,63,0.00,,,0.00,0.000000,,2013-08-22 08:53:00,
2013-08-22 03:22:00,52.0,41.0,-100.00,SW,235,3.0,5.0,65,0.00,,,0.00,0.000000,,2013-08-22 09:22:00,
2013-08-22 03:33:00,52.0,41.0,-100.00,SW,235,3.0,5.0,65,0.00,,,0.00,0.000000,,2013-08-22 09:33:00,
2013-08-22 03:43:00,52.0,41.0,-100.00,SW,235,3.0,5.0,65,0.00,,,0.00,0.000000,,2013-08-22 09:43:00,
2013-08-22 03:53:00,52.0,41.0,-100.00,SW,235,3.0,5.0,65,0.00,,,0.00,0.000000,,2013-08-22 09:53:00,
2013-08-22 04:23:00,51.0,40.0,-100.00,NNW,335,4.0,7.0,66,0.00,,,0.00,0.000000,,2013-08-22 10:23:00,
2013-08-22 04:32:00,51.0,40.0,-100.00,NNW,335,4.0,7.0,66,0.00,,,0.00,0.000000,,2013-08-22 10:32:00,
2013-08-22 04:42:00,51.0,40.0,-100.00,NNW,335,4.0,7.0,66,0.00,,,0.00,0.000000,,2013-08-22 10:42:00,
2013-08-22 06:32:00,52.0,40.0,-100.00,North,357,2.0,5.0,64,0.00,,,0.00,0.000000,,2013-08-22 12:32:00,
2013-08-22 06:42:00,52.0,40.0,-100.00,North,357,2.0,5.0,64,0.00,,,0.00,0.000000,,2013-08-22 12:42:00,
2013-08-22 06:52:00,52.0,40.0,-100.00,North,357,2.0,5.0,64,0.00,,,0.00,0.000000,,2013-08-22 12:52:00,
2013-08-22 07:22:00,51.0,39.0,-100.00,WNW,286,2.0,3.0,64,0.00,,,0.00,9.000000,,2013-08-22 13:22:00,
2013-08-22 07:32:00,51.0,39.0,-100.00,WNW,286,2.0,3.0,64,0.00,,,0.00,9.000000,,2013-08-22 13:32:00,
2013-08-22 07:42:00,51.0,39.0,-100.00,WNW,286,2.0,3.0,64,0.00,,,0.00,9.000000,,2013-08-22 13:42:00,
2013-08-22 07:52:00,51.0,39.0,-100.00,WNW,286,2.0,3.0,64,0.00,,,0.00,9.000000,,2013-08-22 13:52:00,
2013-08-22 08:22:00,54.0,42.0,-100.00,East,89,1.0,3.0,63,0.00,,,0.00,69.000000,,2013-08-22 14:22:00,
2013-08-22 08:33:00,54.0,42.0,-100.00,East,89,1.0,3.0,63,0.00,,,0.00,69.000000,,2013-08-22 14:33:00,
2013-08-22 08:42:00,54.0,42.0,-100.00,East,89,1.0,3.0,63,0.00,,,0.00,69.000000,,2013-08-22 14:42:00,
2013-08-22 08:52:00,54.0,42.0,-100.00,East,89,1.0,3.0,63,0.00,,,0.00,69.000000,,2013-08-22 14:52:00,
2013-08-22 09:22:00,59.0,43.0,-100.00,SSE,168,3.0,4.0,55,0.00,,,0.00,223.000000,,2013-08-22 15:22:00,
2013-08-22 09:34:00,59.0,43.0,-100.00,SSE,168,3.0,4.0,55,0.00,,,0.00,223.000000,,2013-08-22 15:34:00,
2013-08-22 09:43:00,59.0,43.0,-100.00,SSE,168,3.0,4.0,55,0.00,,,0.00,223.000000,,2013-08-22 15:43:00,
2013-08-22 09:54:00,59.0,43.0,-100.00,SSE,168,3.0,4.0,55,0.00,,,0.00,223.000000,,2013-08-22 15:54:00,
2013-08-22 10:24:00,61.0,45.0,-100.00,SE,136,3.0,6.0,56,0.00,,,0.00,210.000000,,2013-08-22 16:24:00,
2013-08-22 10:34:00,61.0,45.0,-100.00,SE,136,3.0,6.0,56,0.00,,,0.00,210.000000,,2013-08-22 16:34:00,
2013-08-22 10:43:00,61.0,45.0,-100.00,SE,136,3.0,6.0,56,0.00,,,0.00,210.000000,,2013-08-22 16:43:00,
2013-08-22 10:53:00,61.0,45.0,-100.00,SE,136,3.0,6.0,56,0.00,,,0.00,210.000000,,2013-08-22 16:53:00,
2013-08-22 11:24:00,69.0,46.0,-100.00,East,95,5.0,8.0,43,0.00,,,-99.99,523.000000,,2013-08-22 17:24:00,
2013-08-22 11:33:00,69.0,46.0,-100.00,East,95,5.0,8.0,43,0.00,,,-99.99,523.000000,,2013-08-22 17:33:00,
2013-08-22 11:43:00,69.0,46.0,-100.00,East,95,5.0,8.0,43,0.00,,,-99.99,523.000000,,2013-08-22 17:43:00,
2013-08-22 11:53:00,69.0,46.0,-100.00,East,95,5.0,8.0,43,0.00,,,-99.99,523.000000,,2013-08-22 17:53:00,
2013-08-22 12:22:00,68.0,40.0,-100.00,ESE,110,4.0,12.0,36,0.00,,,0.00,566.000000,,2013-08-22 18:22:00,
2013-08-22 12:32:00,68.0,40.0,-100.00,ESE,110,4.0,12.0,36,0.00,,,0.00,566.000000,,2013-08-22 18:32:00,
2013-08-22 12:43:00,68.0,40.0,-100.00,ESE,110,4.0,12.0,36,0.00,,,0.00,566.000000,,2013-08-22 18:43:00,
2013-08-22 12:52:00,68.0,40.0,-100.00,ESE,110,4.0,12.0,36,0.00,,,0.00,566.000000,,2013-08-22 18:52:00,
2013-08-22 13:22:00,69.0,41.0,-100.00,ENE,69,3.0,10.0,36,0.00,,,0.00,347.000000,,2013-08-22 19:22:00,
2013-08-22 13:32:00,69.0,41.0,-100.00,ENE,69,3.0,10.0,36,0.00,,,0.00,347.000000,,2013-08-22 19:32:00,
2013-08-22 13:42:00,69.0,41.0,-100.00,ENE,69,3.0,10.0,36,0.00,,,0.00,347.000000,,2013-08-22 19:42:00,
2013-08-22 13:53:00,69.0,41.0,-100.00,ENE,69,3.0,10.0,36,0.00,,,0.00,347.000000,,2013-08-22 19:53:00,
2013-08-22 14:23:00,70.0,40.0,-100.00,ESE,123,5.0,11.0,34,0.00,,,0.00,406.000000,,2013-08-22 20:23:00,
2013-08-22 14:32:00,70.0,40.0,-100.00,ESE,123,5.0,11.0,34,0.00,,,0.00,406.000000,,2013-08-22 20:32:00,
2013-08-22 14:42:00,70.0,40.0,-100.00,ESE,123,5.0,11.0,34,0.00,,,0.00,406.000000,,2013-08-22 20:42:00,
2013-08-22 14:52:00,70.0,40.0,-100.00,ESE,123,5.0,11.0,34,0.00,,,0.00,406.000000,,2013-08-22 20:52:00,
2013-08-22 15:22:00,67.0,46.0,-100.00,NNE,15,4.0,8.0,46,0.00,,,0.00,217.000000,,2013-08-22 21:22:00,
2013-08-22 15:34:00,67.0,46.0,-100.00,NNE,15,4.0,8.0,46,0.00,,,0.00,217.000000,,2013-08-22 21:34:00,
2013-08-22 15:44:00,67.0,46.0,-100.00,NNE,15,4.0,8.0,46,0.00,,,0.00,217.000000,,2013-08-22 21:44:00,
2013-08-22 15:54:00,67.0,46.0,-100.00,NNE,15,4.0,8.0,46,0.00,,,0.00,217.000000,,2013-08-22 21:54:00,
2013-08-22 16:25:00,68.0,46.0,-100.00,NNW,343,4.0,11.0,46,0.00,,,0.00,270.000000,,2013-08-22 22:25:00,
2013-08-22 16:34:00,68.0,46.0,-100.00,NNW,343,4.0,11.0,46,0.00,,,0.00,270.000000,,2013-08-22 22:34:00,
2013-08-22 16:42:00,68.0,46.0,-100.00,NNW,343,4.0,11.0,46,0.00,,,0.00,270.000000,,2013-08-22 22:42:00,
2013-08-22 16:53:00,68.0,46.0,-100.00,NNW,343,4.0,11.0,46,0.00,,,0.00,270.000000,,2013-08-22 22:53:00,
2013-08-22 18:23:00,61.0,49.0,-100.00,NE,45,2.0,10.0,64,-99.99,,,0.02,102.000000,,2013-08-23 00:23:00,
2013-08-22 18:33:00,61.0,49.0,-100.00,NE,45,2.0,10.0,64,-99.99,,,0.02,102.000000,,2013-08-23 00:33:00,
2013-08-22 18:42:00,61.0,49.0,-100.00,NE,45,2.0,10.0,64,-99.99,,,0.02,102.000000,,2013-08-23 00:42:00,
2013-08-22 18:52:00,61.0,49.0,-100.00,NE,45,2.0,10.0,64,-99.99,,,0.02,102.000000,,2013-08-23 00:52:00,
2013-08-22 19:21:00,58.0,48.0,-100.00,NW,317,4.0,13.0,69,0.00,,,0.02,140.000000,,2013-08-23 01:21:00,
2013-08-22 19:33:00,58.0,48.0,-100.00,NW,317,4.0,13.0,69,0.00,,,0.02,140.000000,,2013-08-23 01:33:00,
2013-08-22 19:42:00,58.0,48.0,-100.00,NW,317,4.0,13.0,69,0.00,,,0.02,140.000000,,2013-08-23 01:42:00,
2013-08-22 19:52:00,58.0,48.0,-100.00,NW,317,4.0,13.0,69,0.00,,,0.02,140.000000,,2013-08-23 01:52:00,
2013-08-22 20:23:00,56.0,49.0,-100.00,NW,314,3.0,8.0,76,0.00,,,0.02,33.000000,,2013-08-23 02:23:00,
2013-08-22 20:33:00,56.0,49.0,-100.00,NW,314,3.0,8.0,76,0.00,,,0.02,33.000000,,2013-08-23 02:33:00,
2013-08-22 20:43:00,56.0,49.0,-100.00,NW,314,3.0,8.0,76,0.00,,,0.02,33.000000,,2013-08-23 02:43:00,
2013-08-22 20:52:00,56.0,49.0,-100.00,NW,314,3.0,8.0,76,0.00,,,0.02,33.000000,,2013-08-23 02:52:00,
2013-08-22 21:23:00,54.0,49.0,-100.00,SSE,162,8.0,14.0,84,0.00,,,0.02,0.000000,,2013-08-23 03:23:00,
2013-08-22 21:34:00,54.0,49.0,-100.00,SSE,162,8.0,14.0,84,0.00,,,0.02,0.000000,,2013-08-23 03:34:00,
2013-08-22 21:44:00,54.0,49.0,-100.00,SSE,162,8.0,14.0,84,0.00,,,0.02,0.000000,,2013-08-23 03:44:00,
2013-08-22 21:55:00,54.0,49.0,-100.00,SSE,162,8.0,14.0,84,0.00,,,0.02,0.000000,,2013-08-23 03:55:00,
2013-08-22 22:24:00,52.0,51.0,-100.00,WSW,240,0.0,10.0,95,0.04,,,0.06,0.000000,,2013-08-23 04:24:00,
2013-08-22 22:34:00,52.0,51.0,-100.00,WSW,240,0.0,10.0,95,0.04,,,0.06,0.000000,,2013-08-23 04:34:00,
2013-08-22 22:43:00,52.0,51.0,-100.00,WSW,240,0.0,10.0,95,0.04,,,0.06,0.000000,,2013-08-23 04:43:00,
2013-08-22 22:54:00,52.0,51.0,-100.00,WSW,240,0.0,10.0,95,0.04,,,0.06,0.000000,,2013-08-23 04:54:00,
2013-08-22 23:22:00,51.0,50.0,-100.00,SE,139,2.0,10.0,95,0.00,,,0.06,0.000000,,2013-08-23 05:22:00,
2013-08-22 23:34:00,51.0,50.0,-100.00,SE,139,2.0,10.0,95,0.00,,,0.06,0.000000,,2013-08-23 05:34:00,
2013-08-22 23:42:00,51.0,50.0,-100.00,SE,139,2.0,10.0,95,0.00,,,0.06,0.000000,,2013-08-23 05:42:00,
2013-08-22 23:52:00,51.0,50.0,-100.00,SE,139,2.0,10.0,95,0.00,,,0.06,0.000000,,2013-08-23 05:52:00,